• en Suisse
  • Liste des pays
  • À 7 jours
  • Température de l'eau
  • Carte satellitaire
  • Carte météo
  • Widgets météo
  • user-avatar
    Se connecter

    Météo par heure à Novodvorcy

    Ce jour, 19 Septembre, Mercredi

    Heure Température Précipitation Vent Pression Humidité
    00:00 +16°C° 0 mm 2 m/s 750 mmHg 85%
    01:00 +16°C° 0 mm 2 m/s 750 mmHg 87%
    02:00 +16°C° 0 mm 2 m/s 750 mmHg 88%
    03:00 +15°C° 0 mm 2 m/s 750 mmHg 89%
    04:00 +15°C° 0 mm 2 m/s 750 mmHg 90%
    05:00 +14°C° 0 mm 3 m/s 750 mmHg 91%
    06:00 +16°C° 0 mm 3 m/s 750 mmHg 87%
    07:00 +17°C° 0 mm 3 m/s 750 mmHg 83%
    08:00 +18°C° 0 mm 3 m/s 750 mmHg 78%
    09:00 +20°C° 0 mm 4 m/s 750 mmHg 72%
    10:00 +21°C° 0 mm 4 m/s 750 mmHg 65%
    11:00 +23°C° 0 mm 4 m/s 750 mmHg 59%
    12:00 +25°C° 0 mm 4 m/s 750 mmHg 55%
    13:00 +26°C° 0 mm 4 m/s 750 mmHg 52%
    14:00 +27°C° 0 mm 4 m/s 750 mmHg 48%
    15:00 +27°C° 0 mm 4 m/s 749 mmHg 51%
    16:00 +26°C° 0 mm 3 m/s 749 mmHg 54%
    17:00 +26°C° 0 mm 2 m/s 749 mmHg 58%
    18:00 +24°C° 0 mm 2 m/s 749 mmHg 61%
    19:00 +21°C° 0 mm 2 m/s 749 mmHg 64%
    20:00 +20°C° 0 mm 2 m/s 749 mmHg 68%
    21:00 +19°C° 0 mm 2 m/s 749 mmHg 69%
    22:00 +19°C° 0 mm 2 m/s 750 mmHg 70%
    23:00 +18°C° 0 mm 2 m/s 750 mmHg 71%

    Demain, 20 Septembre, Jeudi

    Heure Température Précipitation Vent Pression Humidité
    00:00 +18°C° 0 mm 2 m/s 750 mmHg 72%
    01:00 +17°C° 0 mm 2 m/s 750 mmHg 73%
    02:00 +17°C° 0 mm 2 m/s 750 mmHg 74%
    03:00 +17°C° 0 mm 2 m/s 750 mmHg 76%
    04:00 +16°C° 0 mm 2 m/s 750 mmHg 77%
    05:00 +16°C° 0 mm 2 m/s 750 mmHg 79%
    06:00 +17°C° 0 mm 2 m/s 750 mmHg 77%
    07:00 +18°C° 0 mm 2 m/s 750 mmHg 75%
    08:00 +18°C° 0 mm 2 m/s 750 mmHg 73%
    09:00 +20°C° 0 mm 2 m/s 751 mmHg 68%
    10:00 +23°C° 0 mm 2 m/s 751 mmHg 62%
    11:00 +25°C° 0 mm 2 m/s 751 mmHg 56%
    12:00 +26°C° 0 mm 2 m/s 750 mmHg 54%
    13:00 +27°C° 0 mm 2 m/s 750 mmHg 51%
    14:00 +28°C° 0 mm 2 m/s 750 mmHg 49%
    15:00 +28°C° 0 mm 2 m/s 750 mmHg 51%
    16:00 +27°C° 0 mm 2 m/s 750 mmHg 54%
    17:00 +27°C° 0 mm 2 m/s 750 mmHg 57%
    18:00 +25°C° 0 mm 2 m/s 750 mmHg 60%
    19:00 +23°C° 0 mm 2 m/s 750 mmHg 64%
    20:00 +20°C° 0 mm 2 m/s 750 mmHg 68%
    21:00 +20°C° 0 mm 2 m/s 750 mmHg 69%
    22:00 +19°C° 0 mm 2 m/s 750 mmHg 70%
    23:00 +19°C° 0 mm 2 m/s 750 mmHg 71%

    Après-demain, 21 Septembre, Vendredi

    Heure Température Précipitation Vent Pression Humidité
    00:00 +18°C° 0 mm 2 m/s 750 mmHg 72%
    01:00 +18°C° 0 mm 2 m/s 750 mmHg 73%
    02:00 +17°C° 0 mm 2 m/s 750 mmHg 75%
    03:00 +17°C° 0 mm 2 m/s 749 mmHg 75%
    04:00 +16°C° 0 mm 2 m/s 749 mmHg 76%
    05:00 +16°C° 0 mm 2 m/s 749 mmHg 77%
    06:00 +17°C° 0 mm 2 m/s 750 mmHg 75%
    07:00 +18°C° 0 mm 2 m/s 750 mmHg 73%
    08:00 +18°C° 0 mm 2 m/s 750 mmHg 71%
    09:00 +20°C° 0 mm 3 m/s 750 mmHg 65%
    10:00 +22°C° 0 mm 3 m/s 750 mmHg 60%
    11:00 +25°C° 0 mm 3 m/s 749 mmHg 54%
    12:00 +26°C° 0 mm 4 m/s 749 mmHg 52%
    13:00 +26°C° 0 mm 4 m/s 749 mmHg 49%
    14:00 +27°C° 0 mm 5 m/s 748 mmHg 47%
    15:00 +26°C° 0 mm 4 m/s 748 mmHg 51%
    16:00 +26°C° 0 mm 4 m/s 747 mmHg 54%
    17:00 +25°C° 0 mm 3 m/s 747 mmHg 57%
    18:00 +24°C° 0 mm 3 m/s 746 mmHg 61%
    19:00 +21°C° 0 mm 4 m/s 746 mmHg 64%
    20:00 +20°C° 0 mm 4 m/s 746 mmHg 67%
    21:00 +20°C° 0 mm 4 m/s 746 mmHg 68%
    22:00 +19°C° 0 mm 4 m/s 746 mmHg 68%
    23:00 +19°C° 0 mm 5 m/s 745 mmHg 69%

    22 Septembre, Samedi

    Heure Température Précipitation Vent Pression Humidité
    00:00 +19°C° 0 mm 5 m/s 745 mmHg 70%
    01:00 +19°C° 0 mm 5 m/s 744 mmHg 72%
    02:00 +17°C° 0 mm 5 m/s 744 mmHg 73%
    03:00 +17°C° 0 mm 5 m/s 744 mmHg 72%
    04:00 +17°C° 0 mm 5 m/s 743 mmHg 72%
    05:00 +17°C° 0 mm 5 m/s 743 mmHg 71%
    06:00 +17°C° 0 mm 5 m/s 743 mmHg 69%
    07:00 +17°C° 0 mm 5 m/s 743 mmHg 67%
    08:00 +19°C° 0 mm 5 m/s 743 mmHg 65%
    09:00 +19°C° 0 mm 5 m/s 744 mmHg 66%
    10:00 +19°C° 0 mm 6 m/s 745 mmHg 66%
    11:00 +20°C° 0 mm 6 m/s 745 mmHg 67%
    12:00 +17°C° 0.2 mm 5 m/s 746 mmHg 71%
    13:00 +16°C° 0.2 mm 5 m/s 746 mmHg 74%
    14:00 +14°C° 0.2 mm 5 m/s 747 mmHg 78%
    15:00 +14°C° 0.1 mm 4 m/s 747 mmHg 79%
    16:00 +13°C° 0.1 mm 4 m/s 748 mmHg 80%
    17:00 +13°C° 0.1 mm 3 m/s 748 mmHg 81%
    18:00 +13°C° 0.1 mm 3 m/s 749 mmHg 81%
    19:00 +12°C° 0.1 mm 3 m/s 749 mmHg 81%
    20:00 +12°C° 0.1 mm 3 m/s 749 mmHg 81%
    21:00 +12°C° 0 mm 3 m/s 750 mmHg 79%
    22:00 +11°C° 0 mm 3 m/s 750 mmHg 78%
    23:00 +11°C° 0 mm 3 m/s 750 mmHg 76%

    23 Septembre, Dimanche

    Heure Température Précipitation Vent Pression Humidité
    00:00 +11°C° 0 mm 3 m/s 750 mmHg 75%
    01:00 +10°C° 0 mm 3 m/s 750 mmHg 75%
    02:00 +10°C° 0 mm 3 m/s 750 mmHg 74%
    03:00 +9°C° 0 mm 2 m/s 750 mmHg 76%
    04:00 +9°C° 0 mm 2 m/s 750 mmHg 78%
    05:00 +8°C° 0 mm 2 m/s 750 mmHg 80%
    06:00 +9°C° 0 mm 2 m/s 750 mmHg 78%
    07:00 +9°C° 0 mm 3 m/s 750 mmHg 76%
    08:00 +10°C° 0 mm 3 m/s 750 mmHg 75%
    09:00 +12°C° 0 mm 3 m/s 750 mmHg 67%
    10:00 +13°C° 0 mm 4 m/s 750 mmHg 59%
    11:00 +15°C° 0 mm 5 m/s 750 mmHg 51%
    12:00 +15°C° 0 mm 5 m/s 750 mmHg 48%
    13:00 +16°C° 0 mm 5 m/s 750 mmHg 46%
    14:00 +16°C° 0 mm 5 m/s 750 mmHg 44%
    15:00 +17°C° 0 mm 4 m/s 749 mmHg 46%
    16:00 +17°C° 0 mm 3 m/s 749 mmHg 48%
    17:00 +16°C° 0 mm 2 m/s 749 mmHg 51%
    18:00 +15°C° 0 mm 2 m/s 749 mmHg 54%
    19:00 +13°C° 0 mm 2 m/s 749 mmHg 56%
    20:00 +12°C° 0 mm 1 m/s 749 mmHg 59%
    21:00 +11°C° 0 mm 1 m/s 749 mmHg 61%
    22:00 +10°C° 0 mm 2 m/s 749 mmHg 62%
    23:00 +9°C° 0 mm 2 m/s 748 mmHg 64%

    24 Septembre, Lundi

    Heure Température Précipitation Vent Pression Humidité
    00:00 +9°C° 0 mm 2 m/s 748 mmHg 65%
    01:00 +9°C° 0 mm 3 m/s 747 mmHg 65%
    02:00 +9°C° 0 mm 3 m/s 747 mmHg 66%
    03:00 +8°C° 0 mm 4 m/s 746 mmHg 65%
    04:00 +10°C° 0 mm 4 m/s 746 mmHg 64%
    05:00 +9°C° 0 mm 5 m/s 745 mmHg 63%
    06:00 +10°C° 0 mm 5 m/s 745 mmHg 63%
    07:00 +10°C° 0 mm 6 m/s 744 mmHg 63%
    08:00 +10°C° 0 mm 6 m/s 744 mmHg 62%
    09:00 +11°C° 0 mm 7 m/s 743 mmHg 60%
    10:00 +13°C° 0 mm 8 m/s 743 mmHg 57%
    11:00 +15°C° 0 mm 9 m/s 742 mmHg 54%
    12:00 +13°C° 0 mm 8 m/s 741 mmHg 57%
    13:00 +14°C° 0 mm 7 m/s 741 mmHg 60%
    14:00 +14°C° 0 mm 7 m/s 740 mmHg 63%
    15:00 +14°C° 0 mm 6 m/s 740 mmHg 63%
    16:00 +15°C° 0 mm 5 m/s 740 mmHg 63%
    17:00 +15°C° 0 mm 4 m/s 739 mmHg 64%
    18:00 +14°C° 1.1 mm 4 m/s 739 mmHg 72%
    19:00 +13°C° 1.1 mm 3 m/s 739 mmHg 79%
    20:00 +14°C° 1.1 mm 2 m/s 739 mmHg 87%
    21:00 +14°C° 0.3 mm 2 m/s 739 mmHg 89%
    22:00 +13°C° 0.3 mm 2 m/s 739 mmHg 91%
    23:00 +12°C° 0.3 mm 3 m/s 739 mmHg 92%
    Voir plus